STARLINK-1942, 46794

Orbit data source: Space-Track

STARLINK-1942, 46794 is a payload satellite owned by SpaceX/Seattle (US) in LEO that was launched on Sat, 24 Oct 2020 UTC via an FALCON 9 launch vehicle from the Air Force Eastern Test Range (AFETR). Payload-class satellites include a variety of spacecraft equipped with specific instruments for various scientific and technological missions. These include communications satellites like Starlink; space stations such as the ISS; scientific satellites like the Hubble; Earth observation satellites from companies like Planet Labs, Umbra, and HawkEye 360; GPS; miniature CubeSats for education and research; and military/defense satellites.

Loading next visibility...
Identifier
46794, 2020-074BH
Orbit
LEO
Country
Flag of USUS
Related business
Manufacturer
SpaceX/Seattle
Mission
Partially operational Commercial Communications
Bus & Motor
STARLINK, Unknown motor
Mass
260 kg wet, ~248 kg dry
Launch date (UTC)
2020-10-24 (5 years ago)
Launch vehicle
FALCON 9
Launch site
Air Force Eastern Test Range (AFETR)
Object type
Payload
Rocket body
Debris
Shape & HBR
Box + 1 Pan, 10.1 m
Radar Cross Section
13.562 m², Large (>1 m²)

Expand to show TLE details & history
Last TLE update: 8 hours ago

TLE from 8 hours ago
0 STARLINK-1942
1 46794U 20074BH  25310.33335648  .02016862  00000-0  81820-1 0  9994
2 46794  53.0522 154.7047 0001521 129.6757 321.8237 15.20590789  5853
Epoch: 2025-11-06T08:00Z
TLE epoch observation values (Epoch: 2025-11-06T08:00:01.999Z)
Latitude
53.17835°
Longitude
81.3815°
Altitude
509.772 km
Speed
7.616 km/s
True Right ascension
16h 28m 43s
True Declination
53° 00' 26"
Sunlit
Object was in daylight at epoch
Visualization orbit readout
Latitude
Unknown
Longitude
Unknown
Altitude
Unknown
Speed
Unknown
Apparent Right ascension
Unknown
Apparent Declination
Unknown
Sunlit
N/A
Visualization observer readout
Local Sidereal Time
11:41:06
Azimuth
Unknown
Elevation
Unknown
Doppler factor
Unknown
Orbital elements
Apogee altitude
505.377 km
Perigee altitude
503.283 km
Semi-major axis
6,882.467 km
Eccentricity
0.00015
Inclination
53.0522°
RAAN
154.7047°
Arg. of periapsis
129.6757°
True anomaly
321.81293°
Mean anomaly
321.8237°
Eccentric anomaly
321.81831°
Mean motion
3.80125 °/min
Orbital period
94.71 mins
BSTAR
0.08182
Loading maneuver chart data...
Computing Atmospheric mass density...

Documentation

Showing up to 5 results
|